カタログに戻る

FENGYUN 1C DEB

運用中SSO
NORAD 30272·DEBRIS·🇨🇳 China

打ち上げ May 10, 1999 から Taiyuan Satellite Launch Center

Loading…

次のパス (今後24時間)

TLE

最新Source: Space-Track

元期: Sep 14, 2026, 03:48 UTC

1 30272U 99025YH  26257.15856422  .00001370  00000-0  71093-3 0  9998
2 30272  98.8841 329.0000 0049492  43.2964 317.2083 14.15813672  7519

AllMySatでFENGYUN 1C DEBをリアルタイム追跡

Download on the App Store